Location: Coffee Ditch
(40.9640°N, 122.7500°W)
Time: 06:34:05
(UTC+00:00)

Cosmos 2322 Rocket - Pass Details

Date: 08 September 2024
Orbit: 831 x 850 km, 71.0° (Epoch: 05 October)

Event Time Altitude Azimuth Distance (km) Brightness Sun altitude
Rises 12:34:43 0° 333° (NNW) 3,418 5.3 -13.7°
Reaches altitude 10° 12:37:12 10° 331° (NNW) 2,477 4.5 -13.3°
Maximum altitude 12:42:49 65° 251° (WSW) 923 2.2 -12.3°
Drops below altitude 10° 12:48:22 10° 170° (S) 2,448 4.5 -11.3°
Sets 12:50:48 0° 167° (SSE) 3,375 5.3 -10.9°
